When you browse on this site, cookies collect data to enhance your experience and personalize the content and advertising you see.
Visit our Privacy Policy to learn more. By continuing to use the site, you agree to this use of cookies and data.
  • In Sweden
  • List of Countries
  • For 7 days
  • Water Temperature
  • Weather Map
  • Weather Widgets
  • user-avatar
    Login

    Hourly Weather Rozhnyatov

    Today, 7 December, Saturday

    Time Temperature Precipitation Wind Pressure Humidity
    00:00 +2°C° 0 mm 1 mps 724 mmHg 72%
    01:00 -1°C° 0 mm 2 mps 723 mmHg 76%
    02:00 -1°C° 0 mm 1 mps 723 mmHg 83%
    03:00 -1°C° 0 mm 1 mps 722 mmHg 84%
    04:00 -3°C° 0 mm 2 mps 722 mmHg 84%
    05:00 -2°C° 0 mm 2 mps 722 mmHg 81%
    06:00 -1°C° 0 mm 2 mps 721 mmHg 72%
    07:00 -2°C° 0 mm 5 mps 721 mmHg 68%
    08:00 -2°C° 0 mm 8 mps 721 mmHg 71%
    09:00 -2°C° 0 mm 7 mps 721 mmHg 72%
    10:00 -1°C° 0 mm 7 mps 721 mmHg 74%
    11:00 -1°C° 0 mm 7 mps 721 mmHg 73%
    12:00 0°C° 0 mm 8 mps 721 mmHg 73%
    13:00 +3°C° 0 mm 7 mps 721 mmHg 73%
    14:00 +4°C° 0 mm 4 mps 721 mmHg 77%
    15:00 +4°C° 0 mm 4 mps 721 mmHg 79%
    16:00 +3°C° 0 mm 4 mps 721 mmHg 82%
    17:00 +1°C° 0 mm 5 mps 721 mmHg 84%
    18:00 0°C° 0 mm 7 mps 721 mmHg 84%
    19:00 -1°C° 0 mm 7 mps 722 mmHg 84%
    20:00 -1°C° 0 mm 7 mps 722 mmHg 85%
    21:00 -1°C° 0 mm 6 mps 722 mmHg 84%
    22:00 -1°C° 0 mm 6 mps 722 mmHg 84%
    23:00 -1°C° 0 mm 6 mps 722 mmHg 85%

    Tomorrow, 8 December, Sunday

    Time Temperature Precipitation Wind Pressure Humidity
    00:00 -1°C° 0 mm 6 mps 723 mmHg 85%
    01:00 -1°C° 0 mm 6 mps 723 mmHg 85%
    02:00 -1°C° 0 mm 6 mps 723 mmHg 86%
    03:00 0°C° 0 mm 5 mps 723 mmHg 88%
    04:00 0°C° 0 mm 5 mps 723 mmHg 89%
    05:00 0°C° 0 mm 5 mps 723 mmHg 89%
    06:00 0°C° 0 mm 5 mps 723 mmHg 89%
    07:00 0°C° 0 mm 5 mps 723 mmHg 89%
    08:00 0°C° 0 mm 5 mps 724 mmHg 90%
    09:00 0°C° 0 mm 5 mps 724 mmHg 89%
    10:00 +1°C° 0 mm 5 mps 724 mmHg 87%
    11:00 +3°C° 0 mm 6 mps 724 mmHg 84%
    12:00 +3°C° 0 mm 6 mps 724 mmHg 82%
    13:00 +5°C° 0 mm 5 mps 723 mmHg 81%
    14:00 +5°C° 0 mm 4 mps 724 mmHg 80%
    15:00 +4°C° 0 mm 3 mps 723 mmHg 81%
    16:00 +4°C° 0 mm 2 mps 722 mmHg 84%
    17:00 +3°C° 0 mm 2 mps 722 mmHg 83%
    18:00 +2°C° 0 mm 3 mps 722 mmHg 84%
    19:00 +1°C° 0 mm 4 mps 722 mmHg 87%
    20:00 +1°C° 0 mm 4 mps 722 mmHg 87%
    21:00 +2°C° 0 mm 6 mps 721 mmHg 87%
    22:00 +1°C° 0 mm 8 mps 720 mmHg 85%
    23:00 +2°C° 0 mm 10 mps 720 mmHg 84%

    Day after tomorrow, 9 December, Monday

    Time Temperature Precipitation Wind Pressure Humidity
    00:00 +2°C° 0 mm 10 mps 719 mmHg 83%
    01:00 +2°C° 0 mm 10 mps 719 mmHg 82%
    02:00 +2°C° 0 mm 9 mps 719 mmHg 82%
    03:00 +4°C° 0 mm 4 mps 719 mmHg 85%
    04:00 +5°C° 0 mm 2 mps 718 mmHg 83%
    05:00 +4°C° 0 mm 4 mps 718 mmHg 84%
    06:00 +4°C° 0 mm 6 mps 717 mmHg 84%
    07:00 +4°C° 0 mm 7 mps 717 mmHg 85%
    08:00 +4°C° 0 mm 6 mps 717 mmHg 86%
    09:00 +4°C° 0 mm 6 mps 717 mmHg 87%
    10:00 +5°C° 0 mm 7 mps 717 mmHg 83%
    11:00 +5°C° 0 mm 9 mps 717 mmHg 81%
    12:00 +6°C° 0 mm 9 mps 717 mmHg 80%
    13:00 +6°C° 0 mm 9 mps 717 mmHg 81%
    14:00 +6°C° 0 mm 8 mps 717 mmHg 82%
    15:00 +5°C° 0 mm 7 mps 717 mmHg 83%
    16:00 +5°C° 0 mm 5 mps 717 mmHg 87%
    17:00 +5°C° 0 mm 5 mps 717 mmHg 90%
    18:00 +4°C° 0 mm 4 mps 717 mmHg 87%
    19:00 +4°C° 0 mm 3 mps 718 mmHg 86%
    20:00 +5°C° 0 mm 2 mps 718 mmHg 86%
    21:00 +6°C° 0 mm 1 mps 718 mmHg 84%
    22:00 +6°C° 0 mm 1 mps 717 mmHg 85%
    23:00 +6°C° 0 mm 1 mps 717 mmHg 84%

    10 December, Tuesday

    Time Temperature Precipitation Wind Pressure Humidity
    00:00 +6°C° 0 mm 1 mps 717 mmHg 83%
    01:00 +6°C° 0 mm 1 mps 718 mmHg 83%
    02:00 +4°C° 0 mm 2 mps 718 mmHg 87%
    03:00 +3°C° 0 mm 3 mps 718 mmHg 89%
    04:00 +2°C° 0 mm 3 mps 718 mmHg 93%
    05:00 +2°C° 0 mm 3 mps 718 mmHg 95%
    06:00 +2°C° 0 mm 3 mps 719 mmHg 95%
    07:00 +1°C° 0 mm 3 mps 719 mmHg 93%
    08:00 +2°C° 0 mm 2 mps 719 mmHg 93%
    09:00 +3°C° 0 mm 1 mps 720 mmHg 91%
    10:00 +3°C° 0 mm 0 mps 721 mmHg 92%
    11:00 +5°C° 0 mm 1 mps 721 mmHg 94%
    12:00 +5°C° 0 mm 2 mps 722 mmHg 91%
    13:00 +4°C° 0 mm 4 mps 722 mmHg 89%
    14:00 +3°C° 0 mm 5 mps 722 mmHg 87%
    15:00 +3°C° 0 mm 3 mps 722 mmHg 92%
    16:00 +3°C° 0 mm 3 mps 723 mmHg 96%
    17:00 +1°C° 0 mm 4 mps 723 mmHg 94%
    18:00 +1°C° 0 mm 3 mps 724 mmHg 98%
    19:00 +1°C° 0 mm 3 mps 724 mmHg 100%
    20:00 +1°C° 0 mm 3 mps 725 mmHg 100%
    21:00 0°C° 0 mm 3 mps 725 mmHg 100%
    22:00 +1°C° 0 mm 2 mps 726 mmHg 100%
    23:00 +1°C° 0 mm 2 mps 726 mmHg 100%

    11 December, Wednesday

    Time Temperature Precipitation Wind Pressure Humidity
    00:00 +1°C° 0 mm 2 mps 727 mmHg 100%
    01:00 +1°C° 0 mm 2 mps 727 mmHg 100%
    02:00 +1°C° 0 mm 1 mps 727 mmHg 100%

    12 December, Thursday

    Time Temperature Precipitation Wind Pressure Humidity
    Show more